Location: McMath-Hulbert Observatory
(42.6964°N, 83.3187°W)
Time: 19:11:04
(UTC-05:00)

Tiangong 1 - Visible Passes

Search period start: 24 February 2018 00:00
Search period end: 06 March 2018 00:00
Orbit: 245 x 266 km, 42.8° (Epoch: 24 February)

Date Brightness Start Highest point End Pass type
(mag) Time Alt. Az. Time Alt. Az. Time Alt. Az.
02 Mar 3.7 20:19:58 10° WSW 20:20:09 11° WSW 20:20:09 11° WSW visible
03 Mar 3.0 20:10:58 10° WSW 20:11:49 19° WSW 20:11:49 19° WSW visible
04 Mar 1.9 20:01:41 10° W 20:03:06 33° WSW 20:03:06 33° WSW visible
05 Mar 0.6 19:52:07 10° W 19:54:03 62° W 19:54:03 62° W visible
